Dobrodošli na spletni strani vremenske postaje Senovo. Vse informacije so informativnega značaja, saj vremenska postaja ni del državne mreže meteoroloških postaj. AKTUALNIH OBVESTIL NI.


Posebna pozornost v zvezi z vremenskimi dogajanji ni potrebna.    Posebna pozornost v zvezi z vremenskimi dogajanji ni potrebna.

Pogled proti Armezu več informacij Pogled proti Armezu


Bohor več informacij Bohor


Radar strel več informacij blitzortung!


Radar padavin več informacij rain snow radar


Obiščite še:

Template documentation
and downloads

And another site



Weather Underground, zgodovina - Tekstovno

Dnevni povzetek za Oktober 5, 2017 Enote:  Angleško    Metrično   Obe
« Predhodni Dan
Naslednji Dan »
Dnevni Tedenski Mesečni Letni Po meri
  Višja: Nižja: Povprečje:
Temperatura: TemperatureC °F 9.5 °F 15.3 °F
Točka rosišča: DewpointC °F 9.1 °F 11.6 °F
Vlažnost: Humidity % 62 % 80 %
Hitrost vetra: WindSpeedKMH mph 0.0 mph 3.4 mph
Sunki vetra: WindSpeedGustKMH mph - -
Veter:- - SW
Zračni tlak: PressurehPa in 1008.0 in -
Padavine: 0.0 in    
Historical Graphs
 
 
Tabelarni podarki za Oktober 5, 2017
Čas Temperatura Točka rosišča Zračni tlak Veter Hitrost vetra Sunki vetra Vlažnost Intenziteta padavin (urna)
TemperatureC °F DewpointC °F PressurehPa in Calm     Humidity % HourlyPrecipMM in
00:03 10.7 °F 9.9 °F 1020.9 in Calm     95 % 0.0 in
00:08 10.7 °F 9.9 °F 1020.9 in Calm     95 % 0.0 in
00:13 10.6 °F 9.8 °F 1020.9 in Calm     95 % 0.0 in
00:14 10.6 °F 9.8 °F 1020.9 in Calm     95 % 0.0 in
00:19 10.6 °F 9.8 °F 1020.9 in Calm     95 % 0.0 in
00:24 10.6 °F 9.8 °F 1019.9 in Calm     95 % 0.0 in
00:29 10.5 °F 9.7 °F 1019.9 in Calm     95 % 0.0 in
00:34 10.5 °F 9.7 °F 1019.9 in Calm     95 % 0.0 in
00:39 10.5 °F 9.7 °F 1018.8 in Calm     95 % 0.0 in
00:46 10.5 °F 9.9 °F 1018.8 in Calm     96 % 0.0 in
00:51 10.5 °F 9.9 °F 1018.8 in Calm     96 % 0.0 in
00:56 10.5 °F 9.9 °F 1019.9 in Calm     96 % 0.0 in
01:01 10.4 °F 9.8 °F 1019.9 in Calm     96 % 0.0 in
01:06 10.4 °F 9.8 °F 1019.9 in Calm     96 % 0.0 in
01:11 10.4 °F 9.8 °F 1019.9 in Calm     96 % 0.0 in
01:16 10.4 °F 9.8 °F 1019.9 in Calm     96 % 0.0 in
01:21 10.3 °F 9.7 °F 1019.9 in NW 0.2 mph 4.0 mph 96 % 0.0 in
01:26 10.3 °F 9.7 °F 1019.9 in NNW 0.3 mph 4.0 mph 96 % 0.0 in
01:31 10.3 °F 9.7 °F 1019.9 in NNE 0.2 mph 2.6 mph 96 % 0.0 in
01:36 10.3 °F 9.7 °F 1019.9 in Calm     96 % 0.0 in
01:41 10.3 °F 9.7 °F 1019.9 in Calm     96 % 0.0 in
01:46 10.2 °F 9.6 °F 1019.9 in Calm     96 % 0.0 in
01:51 10.1 °F 9.5 °F 1019.9 in Calm     96 % 0.0 in
01:56 10.1 °F 9.5 °F 1019.9 in Calm     96 % 0.0 in
02:01 10.1 °F 9.5 °F 1019.9 in Calm     96 % 0.0 in
02:06 10.1 °F 9.5 °F 1019.9 in NNW 0.5 mph 3.2 mph 96 % 0.0 in
02:11 10.1 °F 9.5 °F 1019.9 in NNW 0.5 mph 3.2 mph 96 % 0.0 in
02:16 10.0 °F 9.4 °F 1019.9 in Calm     96 % 0.0 in
02:26 10.0 °F 9.4 °F 1019.9 in Calm     96 % 0.0 in
02:31 10.0 °F 9.4 °F 1019.9 in Calm     96 % 0.0 in
02:36 9.9 °F 9.4 °F 1019.9 in Calm     97 % 0.0 in
02:41 9.9 °F 9.4 °F 1019.9 in Calm     97 % 0.0 in
02:46 9.9 °F 9.4 °F 1019.9 in Calm     97 % 0.0 in
02:51 9.9 °F 9.4 °F 1019.9 in Calm     97 % 0.0 in
02:56 9.9 °F 9.4 °F 1019.9 in Calm     97 % 0.0 in
03:01 9.9 °F 9.4 °F 1019.9 in Calm     97 % 0.0 in
03:06 9.8 °F 9.3 °F 1019.9 in Calm     97 % 0.0 in
03:11 9.8 °F 9.3 °F 1019.9 in Calm     97 % 0.0 in
03:16 9.8 °F 9.3 °F 1019.9 in Calm     97 % 0.0 in
03:21 9.8 °F 9.3 °F 1019.9 in Calm     97 % 0.0 in
03:26 9.7 °F 9.2 °F 1018.8 in Calm     97 % 0.0 in
03:31 9.7 °F 9.2 °F 1018.8 in Calm     97 % 0.0 in
03:36 9.7 °F 9.2 °F 1018.8 in Calm     97 % 0.0 in
03:41 9.6 °F 9.2 °F 1018.8 in Calm     97 % 0.0 in
03:46 9.6 °F 9.2 °F 1018.8 in Calm     97 % 0.0 in
03:51 9.6 °F 9.2 °F 1018.8 in Calm     97 % 0.0 in
03:56 9.6 °F 9.2 °F 1018.8 in Calm     97 % 0.0 in
04:01 9.5 °F 9.1 °F 1018.8 in Calm     97 % 0.0 in
04:06 9.5 °F 9.1 °F 1018.8 in Calm     97 % 0.0 in
04:11 9.5 °F 9.1 °F 1018.2 in Calm     97 % 0.0 in
04:21 9.5 °F 9.1 °F 1018.2 in Calm     97 % 0.0 in
04:26 9.5 °F 9.1 °F 1018.2 in Calm     97 % 0.0 in
04:31 9.6 °F 9.2 °F 1018.2 in North 0.6 mph 3.5 mph 97 % 0.0 in
04:36 9.6 °F 9.2 °F 1018.2 in North 0.6 mph 3.5 mph 97 % 0.0 in
04:41 9.6 °F 9.2 °F 1018.2 in Calm     97 % 0.0 in
04:47 9.6 °F 9.2 °F 1018.2 in Calm     97 % 0.0 in
04:52 9.7 °F 9.2 °F 1018.2 in Calm     97 % 0.0 in
04:57 9.7 °F 9.2 °F 1018.2 in Calm     97 % 0.0 in
05:02 9.7 °F 9.2 °F 1018.2 in Calm     97 % 0.0 in
05:12 9.9 °F 9.6 °F 1018.2 in Calm     98 % 0.0 in
05:17 9.9 °F 9.6 °F 1018.2 in Calm     98 % 0.0 in
05:21 10.0 °F 9.6 °F 1018.2 in Calm     97 % 0.0 in
05:22 10.0 °F 9.6 °F 1018.2 in Calm     97 % 0.0 in
05:24 10.0 °F 9.6 °F 1018.2 in Calm     97 % 0.0 in
05:27 10.0 °F 9.6 °F 1018.2 in Calm     97 % 0.0 in
05:32 10.0 °F 9.6 °F 1018.2 in Calm     97 % 0.0 in
05:37 10.0 °F 9.6 °F 1018.2 in Calm     97 % 0.0 in
05:47 10.1 °F 9.8 °F 1016.8 in Calm     98 % 0.0 in
05:52 10.2 °F 9.9 °F 1016.8 in Calm     98 % 0.0 in
06:02 10.1 °F 9.8 °F 1016.8 in Calm     98 % 0.0 in
06:07 10.1 °F 9.8 °F 1016.8 in Calm     98 % 0.0 in
06:12 10.1 °F 9.8 °F 1018.2 in Calm     98 % 0.0 in
06:17 10.1 °F 9.8 °F 1018.2 in Calm     98 % 0.0 in
06:27 10.1 °F 9.8 °F 1018.2 in Calm   1.4 mph 98 % 0.0 in
06:32 10.0 °F 9.7 °F 1018.2 in Calm   1.4 mph 98 % 0.0 in
06:37 10.0 °F 9.7 °F 1018.2 in Calm     98 % 0.0 in
06:42 10.0 °F 9.7 °F 1018.2 in Calm   2.1 mph 98 % 0.0 in
06:47 10.0 °F 9.7 °F 1018.2 in NNW 0.2 mph 2.6 mph 98 % 0.0 in
06:52 10.0 °F 9.7 °F 1018.2 in North 0.3 mph 2.6 mph 98 % 0.0 in
06:57 10.0 °F 9.7 °F 1018.2 in North 0.2 mph 1.8 mph 98 % 0.0 in
07:02 10.0 °F 9.7 °F 1018.2 in Calm     98 % 0.0 in
07:07 10.1 °F 9.8 °F 1018.2 in Calm     98 % 0.0 in
07:12 10.1 °F 9.8 °F 1018.2 in Calm     98 % 0.0 in
07:17 10.2 °F 9.9 °F 1018.2 in Calm     98 % 0.0 in
07:22 10.2 °F 9.9 °F 1018.2 in Calm     98 % 0.0 in
07:32 10.3 °F 10.0 °F 1018.2 in Calm     98 % 0.0 in
07:37 10.3 °F 10.0 °F 1018.2 in Calm     98 % 0.0 in
07:42 10.4 °F 10.1 °F 1016.8 in Calm     98 % 0.0 in
07:47 10.5 °F 10.2 °F 1016.8 in Calm     98 % 0.0 in
07:52 10.6 °F 10.3 °F 1016.8 in Calm     98 % 0.0 in
07:57 10.6 °F 10.3 °F 1016.8 in Calm     98 % 0.0 in
08:02 10.7 °F 10.4 °F 1016.8 in Calm     98 % 0.0 in
08:07 10.8 °F 10.5 °F 1016.8 in Calm     98 % 0.0 in
08:12 10.9 °F 10.6 °F 1016.8 in Calm     98 % 0.0 in
08:17 10.9 °F 10.6 °F 1016.8 in Calm     98 % 0.0 in
08:22 11.0 °F 10.7 °F 1016.8 in Calm     98 % 0.0 in
08:27 11.1 °F 10.8 °F 1016.8 in Calm     98 % 0.0 in
08:32 11.3 °F 11.0 °F 1016.8 in Calm     98 % 0.0 in
08:37 11.6 °F 11.3 °F 1016.8 in Calm     98 % 0.0 in
08:42 11.8 °F 11.5 °F 1016.8 in Calm     98 % 0.0 in
08:47 12.1 °F 11.8 °F 1016.8 in Calm     98 % 0.0 in
08:52 12.4 °F 12.1 °F 1016.8 in Calm     98 % 0.0 in
08:57 12.6 °F 12.3 °F 1016.8 in Calm     98 % 0.0 in
09:07 13.1 °F 12.8 °F 1016.8 in Calm     98 % 0.0 in
09:12 13.4 °F 13.1 °F 1016.8 in Calm     98 % 0.0 in
09:17 13.7 °F 13.4 °F 1016.8 in Calm     98 % 0.0 in
09:22 13.9 °F 13.6 °F 1016.8 in Calm     98 % 0.0 in
09:27 14.2 °F 13.9 °F 1016.1 in Calm     98 % 0.0 in
09:32 14.4 °F 14.1 °F 1016.1 in South 0.2 mph 4.0 mph 98 % 0.0 in
09:37 14.7 °F 14.4 °F 1016.1 in SSE 0.3 mph 5.8 mph 98 % 0.0 in
09:40 14.9 °F 14.6 °F 1016.1 in SE 0.5 mph 5.8 mph 98 % 0.0 in
09:45 15.2 °F 14.9 °F 1016.1 in NNW 1.3 mph 6.1 mph 98 % 0.0 in
09:50 15.4 °F 14.9 °F 1016.1 in WNW 2.6 mph 9.3 mph 97 % 0.0 in
09:55 15.7 °F 15.2 °F 1016.1 in WNW 3.4 mph 10.5 mph 97 % 0.0 in
10:00 16.0 °F 15.5 °F 1016.1 in WNW 3.5 mph 15.8 mph 97 % 0.0 in
10:05 16.4 °F 15.8 °F 1016.1 in West 4.2 mph 15.8 mph 96 % 0.0 in
10:10 16.7 °F 16.1 °F 1015.1 in WSW 4.8 mph 10.1 mph 96 % 0.0 in
10:15 17.0 °F 16.0 °F 1015.1 in WSW 5.1 mph 10.1 mph 94 % 0.0 in
10:20 17.2 °F 16.1 °F 1015.1 in SW 4.7 mph 10.1 mph 93 % 0.0 in
10:25 17.5 °F 16.2 °F 1015.1 in SW 4.7 mph 12.2 mph 92 % 0.0 in
10:30 17.7 °F 16.1 °F 1015.1 in SW 5.6 mph 12.2 mph 90 % 0.0 in
10:35 17.9 °F 15.9 °F 1015.1 in SSW 6.3 mph 15.8 mph 88 % 0.0 in
10:40 18.0 °F 15.4 °F 1016.1 in SW 6.4 mph 15.8 mph 85 % 0.0 in
10:50 18.5 °F 15.2 °F 1016.1 in South 6.1 mph 15.1 mph 81 % 0.0 in
10:55 18.6 °F 14.9 °F 1016.1 in SW 7.2 mph 22.7 mph 79 % 0.0 in
11:00 18.7 °F 14.6 °F 1016.1 in SW 8.5 mph 22.7 mph 77 % 0.0 in
11:10 18.9 °F 13.9 °F 1016.1 in WSW 8.7 mph 24.8 mph 73 % 0.0 in
11:17 19.2 °F 14.1 °F 1016.1 in WSW 7.9 mph 16.9 mph 72 % 0.0 in
11:22 19.4 °F 14.0 °F 1016.1 in SW 9.3 mph 20.1 mph 71 % 0.0 in
11:27 19.4 °F 14.0 °F 1016.1 in SW 10.9 mph 28.0 mph 71 % 0.0 in
11:32 19.2 °F 13.6 °F 1016.1 in SW 10.5 mph 28.0 mph 70 % 0.0 in
11:36 19.1 °F 13.5 °F 1016.1 in SW 10.8 mph 20.9 mph 70 % 0.0 in
11:41 19.0 °F 13.4 °F 1016.1 in WSW 8.5 mph 20.9 mph 70 % 0.0 in
11:46 19.1 °F 13.5 °F 1016.1 in WSW 8.2 mph 21.2 mph 70 % 0.0 in
11:51 19.3 °F 13.4 °F 1016.1 in WSW 9.0 mph 21.2 mph 69 % 0.0 in
11:56 19.5 °F 13.9 °F 1016.1 in WSW 7.7 mph 19.8 mph 70 % 0.0 in
12:01 19.8 °F 14.2 °F 1016.1 in SW 8.5 mph 17.2 mph 70 % 0.0 in
12:06 20.0 °F 14.3 °F 1016.1 in SSW 6.9 mph 17.2 mph 70 % 0.0 in
12:11 20.2 °F 14.1 °F 1016.1 in West 6.1 mph 21.2 mph 68 % 0.0 in
12:16 20.3 °F 13.9 °F 1016.1 in WNW 7.4 mph 21.2 mph 67 % 0.0 in
12:21 20.3 °F 13.7 °F 1016.1 in WNW 8.0 mph 15.1 mph 66 % 0.0 in
12:26 20.4 °F 13.6 °F 1015.1 in West 8.0 mph 20.6 mph 65 % 0.0 in
12:31 20.5 °F 13.4 °F 1015.1 in West 8.4 mph 20.9 mph 64 % 0.0 in
12:41 20.6 °F 13.8 °F 1015.1 in SW 6.0 mph 12.2 mph 65 % 0.0 in
12:46 20.7 °F 13.9 °F 1015.1 in WSW 8.0 mph 16.9 mph 65 % 0.0 in
12:51 20.8 °F 14.0 °F 1015.1 in West 8.2 mph 16.9 mph 65 % 0.0 in
12:52 20.8 °F 14.0 °F 1015.1 in WSW 8.4 mph 16.9 mph 65 % 0.0 in
12:57 20.7 °F 13.4 °F 1015.1 in West 6.9 mph 16.9 mph 63 % 0.0 in
13:02 20.9 °F 14.1 °F 1015.1 in WSW 5.8 mph 16.9 mph 65 % 0.0 in
13:07 20.8 °F 14.0 °F 1015.1 in South 4.7 mph 8.7 mph 65 % 0.0 in
13:12 20.6 °F 13.8 °F 1014.1 in West 4.2 mph 9.7 mph 65 % 0.0 in
13:17 20.6 °F 13.8 °F 1014.1 in WSW 5.6 mph 16.6 mph 65 % 0.0 in
13:22 20.7 °F 13.9 °F 1014.1 in SW 7.1 mph 16.6 mph 65 % 0.0 in
13:27 20.7 °F 13.9 °F 1013.1 in SW 6.9 mph 21.2 mph 65 % 0.0 in
13:32 20.5 °F 13.4 °F 1013.1 in WSW 8.7 mph 21.2 mph 64 % 0.0 in
13:37 20.4 °F 13.6 °F 1013.1 in SW 10.5 mph 16.6 mph 65 % 0.0 in
13:42 20.5 °F 13.7 °F 1013.1 in SW 9.5 mph 17.2 mph 65 % 0.0 in
13:47 20.4 °F 13.6 °F 1013.1 in SW 9.5 mph 17.2 mph 65 % 0.0 in
13:52 20.4 °F 13.6 °F 1013.1 in SW 8.7 mph 16.3 mph 65 % 0.0 in
13:57 20.4 °F 13.6 °F 1014.1 in SW 6.1 mph 15.4 mph 65 % 0.0 in
14:02 20.5 °F 13.7 °F 1014.1 in SW 5.3 mph 12.2 mph 65 % 0.0 in
14:07 20.6 °F 14.0 °F 1014.1 in SW 5.6 mph 15.8 mph 66 % 0.0 in
14:12 20.5 °F 13.4 °F 1014.1 in WSW 7.7 mph 17.2 mph 64 % 0.0 in
14:17 20.5 °F 13.7 °F 1014.1 in SW 10.3 mph 20.1 mph 65 % 0.0 in
14:22 20.4 °F 13.6 °F 1014.1 in SSW 8.4 mph 20.1 mph 65 % 0.0 in
14:27 20.3 °F 13.5 °F 1013.1 in SW 6.3 mph 16.6 mph 65 % 0.0 in
14:32 20.3 °F 13.5 °F 1013.1 in WSW 6.1 mph 16.6 mph 65 % 0.0 in
14:37 20.4 °F 13.6 °F 1013.1 in WSW 5.5 mph 14.3 mph 65 % 0.0 in
14:39 20.5 °F 13.7 °F 1013.1 in WSW 5.8 mph 14.3 mph 65 % 0.0 in
14:49 20.6 °F 13.8 °F 1013.1 in WSW 8.2 mph 13.7 mph 65 % 0.0 in
14:54 20.7 °F 13.7 °F 1013.1 in WSW 8.2 mph 16.3 mph 64 % 0.0 in
14:56 20.7 °F 13.7 °F 1013.1 in WSW 7.9 mph 16.3 mph 64 % 0.0 in
15:01 20.5 °F 13.2 °F 1013.1 in WSW 7.7 mph 16.3 mph 63 % 0.0 in
15:06 20.4 °F 13.1 °F 1013.1 in West 6.1 mph 12.6 mph 63 % 0.0 in
15:11 20.2 °F 12.9 °F 1013.1 in West 5.5 mph 12.6 mph 63 % 0.0 in
15:16 20.1 °F 12.8 °F 1013.1 in WSW 6.0 mph 11.6 mph 63 % 0.0 in
15:21 20.3 °F 13.3 °F 1013.1 in SSW 5.8 mph 16.9 mph 64 % 0.0 in
15:26 20.4 °F 13.1 °F 1012.1 in SSW 6.8 mph 17.7 mph 63 % 0.0 in
15:31 20.4 °F 13.1 °F 1012.1 in SW 8.0 mph 17.7 mph 63 % 0.0 in
15:36 20.3 °F 12.8 °F 1012.1 in WSW 8.2 mph 16.9 mph 62 % 0.0 in
15:41 20.2 °F 12.9 °F 1012.1 in SW 7.7 mph 14.8 mph 63 % 0.0 in
15:46 20.2 °F 12.7 °F 1012.1 in WSW 6.4 mph 10.5 mph 62 % 0.0 in
15:51 20.0 °F 12.5 °F 1012.1 in WNW 6.6 mph 24.8 mph 62 % 0.0 in
16:01 19.7 °F 12.2 °F 1012.1 in West 5.3 mph 14.8 mph 62 % 0.0 in
16:06 19.7 °F 12.4 °F 1012.1 in WSW 6.4 mph 14.8 mph 63 % 0.0 in
16:11 19.7 °F 12.4 °F 1012.1 in WSW 6.6 mph 20.9 mph 63 % 0.0 in
16:14 19.7 °F 12.4 °F 1012.1 in West 6.3 mph 20.9 mph 63 % 0.0 in
16:19 19.8 °F 12.6 °F 1012.1 in West 8.8 mph 23.8 mph 63 % 0.0 in
16:21 19.8 °F 12.6 °F 1012.1 in WNW 9.8 mph 24.5 mph 63 % 0.0 in
16:26 19.7 °F 12.2 °F 1013.1 in West 10.0 mph 24.5 mph 62 % 0.0 in
16:31 19.6 °F 12.1 °F 1013.1 in West 8.8 mph 24.8 mph 62 % 0.0 in
16:36 19.4 °F 11.9 °F 1013.1 in West 7.7 mph 24.8 mph 62 % 0.0 in
16:41 19.3 °F 12.1 °F 1012.1 in West 6.9 mph 16.3 mph 63 % 0.0 in
16:46 19.3 °F 12.1 °F 1012.1 in West 8.0 mph 16.6 mph 63 % 0.0 in
16:48 19.2 °F 12.0 °F 1012.1 in West 8.2 mph 16.6 mph 63 % 0.0 in
16:53 19.1 °F 12.1 °F 1011.1 in WNW 7.2 mph 12.6 mph 64 % 0.0 in
16:58 19.1 °F 12.1 °F 1011.1 in WNW 6.1 mph 15.4 mph 64 % 0.0 in
17:03 19.0 °F 12.3 °F 1011.1 in WNW 6.0 mph 16.3 mph 65 % 0.0 in
17:08 18.9 °F 12.2 °F 1011.1 in West 6.3 mph 18.0 mph 65 % 0.0 in
17:13 18.9 °F 12.2 °F 1011.1 in West 7.6 mph 18.0 mph 65 % 0.0 in
17:18 18.8 °F 12.1 °F 1011.1 in West 7.1 mph 14.0 mph 65 % 0.0 in
17:23 18.8 °F 12.1 °F 1011.1 in WSW 4.8 mph 14.0 mph 65 % 0.0 in
17:30 18.7 °F 12.2 °F 1011.1 in SW 2.7 mph 10.5 mph 66 % 0.0 in
17:35 18.7 °F 12.0 °F 1011.1 in WSW 4.5 mph 10.5 mph 65 % 0.0 in
17:40 18.6 °F 11.9 °F 1010.0 in WSW 5.6 mph 9.3 mph 65 % 0.0 in
17:45 18.5 °F 11.8 °F 1010.0 in SW 5.1 mph 10.1 mph 65 % 0.0 in
17:50 18.5 °F 12.0 °F 1010.0 in WSW 4.2 mph 10.1 mph 66 % 0.0 in
17:55 18.3 °F 11.8 °F 1010.0 in WSW 4.2 mph 11.9 mph 66 % 0.0 in
18:00 18.3 °F 11.6 °F 1010.0 in SW 5.8 mph 11.9 mph 65 % 0.0 in
18:05 18.2 °F 11.5 °F 1010.0 in WSW 6.3 mph 15.8 mph 65 % 0.0 in
18:10 18.1 °F 11.4 °F 1009.0 in WSW 5.6 mph 15.8 mph 65 % 0.0 in
18:15 18.1 °F 11.4 °F 1009.0 in WSW 5.8 mph 12.2 mph 65 % 0.0 in
18:20 18.0 °F 11.3 °F 1009.0 in SW 5.5 mph 12.2 mph 65 % 0.0 in
18:25 17.9 °F 11.2 °F 1011.1 in WSW 5.0 mph 13.7 mph 65 % 0.0 in
18:30 17.9 °F 11.2 °F 1011.1 in West 5.8 mph 13.7 mph 65 % 0.0 in
18:35 17.8 °F 11.1 °F 1011.1 in West 5.1 mph 13.0 mph 65 % 0.0 in
18:36 17.8 °F 11.1 °F 1011.1 in West 4.8 mph 13.0 mph 65 % 0.0 in
18:41 17.8 °F 11.1 °F 1011.1 in SSW 2.9 mph 6.9 mph 65 % 0.0 in
18:46 17.6 °F 10.9 °F 1011.1 in East 3.1 mph 12.2 mph 65 % 0.0 in
18:56 17.5 °F 10.8 °F 1010.0 in West 4.7 mph 11.6 mph 65 % 0.0 in
19:01 17.3 °F 10.9 °F 1010.0 in SSE 3.2 mph 6.1 mph 66 % 0.0 in
19:16 17.2 °F 11.0 °F 1010.0 in East 1.9 mph 5.0 mph 67 % 0.0 in
19:21 17.2 °F 11.0 °F 1010.0 in ESE 1.6 mph 6.4 mph 67 % 0.0 in
19:26 17.2 °F 11.2 °F 1010.0 in SSE 2.1 mph 6.9 mph 68 % 0.0 in
19:31 17.2 °F 11.2 °F 1010.0 in South 3.4 mph 10.1 mph 68 % 0.0 in
19:36 17.2 °F 11.2 °F 1010.0 in South 4.5 mph 10.1 mph 68 % 0.0 in
19:41 17.1 °F 11.4 °F 1010.0 in SSW 4.2 mph 10.1 mph 69 % 0.0 in
19:46 17.1 °F 11.4 °F 1010.0 in South 3.7 mph 7.9 mph 69 % 0.0 in
19:51 17.1 °F 11.4 °F 1010.0 in SSE 3.4 mph 6.1 mph 69 % 0.0 in
19:56 17.2 °F 11.4 °F 1009.0 in SSE 3.1 mph 5.8 mph 69 % 0.0 in
20:01 17.2 °F 11.4 °F 1009.0 in SSE 2.3 mph 6.9 mph 69 % 0.0 in
20:06 17.2 °F 11.4 °F 1009.0 in South 2.7 mph 6.9 mph 69 % 0.0 in
20:11 17.1 °F 11.6 °F 1010.0 in South 3.9 mph 9.0 mph 70 % 0.0 in
20:21 17.1 °F 11.6 °F 1010.0 in SSW 3.4 mph 9.0 mph 70 % 0.0 in
20:26 17.2 °F 11.9 °F 1009.0 in South 3.9 mph 15.4 mph 71 % 0.0 in
20:31 17.2 °F 11.9 °F 1009.0 in SSW 4.0 mph 15.4 mph 71 % 0.0 in
20:36 17.2 °F 11.9 °F 1009.0 in SW 3.5 mph 9.0 mph 71 % 0.0 in
20:42 17.4 °F 12.1 °F 1009.0 in WSW 4.7 mph 12.6 mph 71 % 0.0 in
20:47 17.4 °F 12.1 °F 1009.0 in SW 4.3 mph 12.6 mph 71 % 0.0 in
20:52 17.5 °F 12.2 °F 1009.0 in SW 4.3 mph 13.0 mph 71 % 0.0 in
20:57 17.5 °F 12.2 °F 1009.0 in WSW 6.1 mph 13.0 mph 71 % 0.0 in
21:02 17.6 °F 12.3 °F 1009.0 in WSW 7.6 mph 18.0 mph 71 % 0.0 in
21:04 17.7 °F 12.4 °F 1009.0 in WSW 7.6 mph 18.0 mph 71 % 0.0 in
21:09 17.7 °F 12.4 °F 1009.0 in WSW 5.6 mph 18.0 mph 71 % 0.0 in
21:14 17.7 °F 12.4 °F 1009.0 in SW 3.7 mph 14.3 mph 71 % 0.0 in
21:19 17.8 °F 12.3 °F 1009.0 in WSW 6.1 mph 19.5 mph 70 % 0.0 in
21:24 17.8 °F 12.3 °F 1009.0 in West 6.3 mph 19.5 mph 70 % 0.0 in
21:29 17.7 °F 12.2 °F 1009.0 in SW 4.7 mph 9.7 mph 70 % 0.0 in
21:39 17.6 °F 12.1 °F 1008.0 in WSW 3.7 mph 16.3 mph 70 % 0.0 in
21:44 17.5 °F 11.7 °F 1008.0 in WSW 4.7 mph 16.3 mph 69 % 0.0 in
21:49 17.5 °F 11.7 °F 1008.0 in WSW 5.0 mph 12.6 mph 69 % 0.0 in
21:54 17.5 °F 11.7 °F 1008.0 in WSW 5.6 mph 12.6 mph 69 % 0.0 in
21:59 17.5 °F 11.5 °F 1008.0 in SW 5.8 mph 12.2 mph 68 % 0.0 in
22:04 17.4 °F 11.4 °F 1008.0 in SSW 4.5 mph 8.7 mph 68 % 0.0 in
22:09 17.5 °F 11.5 °F 1008.0 in SE 3.9 mph 10.1 mph 68 % 0.0 in
22:14 17.5 °F 11.5 °F 1008.0 in South 5.1 mph 15.4 mph 68 % 0.0 in
22:19 17.4 °F 11.4 °F 1008.0 in WSW 5.3 mph 15.4 mph 68 % 0.0 in
22:29 17.4 °F 11.4 °F 1008.0 in WNW 3.7 mph 9.3 mph 68 % 0.0 in
22:31 17.3 °F 11.3 °F 1008.0 in WNW 3.9 mph 9.3 mph 68 % 0.0 in
22:36 17.3 °F 11.3 °F 1008.0 in West 3.9 mph 9.3 mph 68 % 0.0 in
22:41 17.3 °F 11.6 °F 1008.0 in WSW 4.0 mph 11.9 mph 69 % 0.0 in
22:46 17.3 °F 11.6 °F 1008.0 in WNW 3.4 mph 11.9 mph 69 % 0.0 in
22:51 17.2 °F 11.4 °F 1008.0 in WSW 2.3 mph 7.9 mph 69 % 0.0 in
22:56 17.1 °F 11.4 °F 1008.0 in SW 2.6 mph 9.7 mph 69 % 0.0 in
23:01 17.1 °F 11.6 °F 1008.0 in South 2.7 mph 9.7 mph 70 % 0.0 in
23:06 17.0 °F 11.5 °F 1008.0 in SSW 3.5 mph 5.8 mph 70 % 0.0 in
23:11 17.0 °F 11.5 °F 1008.0 in SSW 3.1 mph 8.7 mph 70 % 0.0 in
23:16 17.0 °F 11.5 °F 1008.0 in SSE 1.6 mph 8.7 mph 70 % 0.0 in
23:21 17.0 °F 11.7 °F 1008.0 in SSW 2.3 mph 6.9 mph 71 % 0.0 in
23:31 16.8 °F 11.7 °F 1009.0 in SSE 2.9 mph 7.9 mph 72 % 0.0 in
23:36 16.8 °F 11.7 °F 1009.0 in SSE 3.2 mph 7.9 mph 72 % 0.0 in
23:41 16.7 °F 11.6 °F 1008.0 in SE 4.7 mph 6.9 mph 72 % 0.0 in
23:46 16.6 °F 11.7 °F 1008.0 in ESE 3.9 mph 6.9 mph 73 % 0.0 in
23:56 16.4 °F 11.6 °F 1008.0 in ESE 1.8 mph 5.5 mph 73 % 0.0 in
Vremenska postaja Senovo
Podatki zbrani iz Weather Underground - 2.75 mb

Script developed by  Jim McMurry - jmcmurry@mwt.net Adapted for the template by  Wim van der Kuil - Leuven-Template.eu

Vremenski podatki so objavljeni na:

European Weather Network

WeatherCloud

Weather Underground

AWEKAS

HAMweather, WeatherForYou, PWS Weather

MapView

Geostik

Slovenia weather network

Oprema, ki se uporablja:

Vremenski program
Cumulus

Vremenski server
Asus

Cumulus

Asus